Time,TemperatureF,DewpointF,PressureIn,WindDirection,WindDirectionDegrees,WindSpeedMPH,WindSpeedGustMPH,Humidity,HourlyPrecipIn,Conditions,Clouds,dailyrainin,SoftwareType,DateUTC
2013-01-16 00:03:00,28.0,23.0,30.10,NE,40,3.0,-999.0,79,-99.99,,,-99.99,,2013-01-16 05:03:00,
2013-01-16 00:12:00,28.0,23.0,30.10,NNE,30,5.0,-999.0,79,-99.99,,,-99.99,,2013-01-16 05:12:00,
2013-01-16 00:22:00,28.0,23.0,30.10,NE,40,5.0,-999.0,79,-99.99,,,-99.99,,2013-01-16 05:22:00,
2013-01-16 00:32:00,28.0,23.0,30.09,NE,40,6.0,-999.0,79,-99.99,,,-99.99,,2013-01-16 05:32:00,
2013-01-16 00:42:00,28.0,23.0,30.08,NE,40,5.0,-999.0,79,-99.99,,,-99.99,,2013-01-16 05:42:00,
2013-01-16 00:53:00,28.0,23.0,30.07,NE,50,5.0,-999.0,79,-99.99,,,-99.99,,2013-01-16 05:53:00,
2013-01-16 01:03:00,28.0,23.0,30.07,ENE,60,5.0,-999.0,79,-99.99,,,-99.99,,2013-01-16 06:03:00,
2013-01-16 01:12:00,28.0,23.0,30.07,NE,50,5.0,-999.0,79,-99.99,,,-99.99,,2013-01-16 06:12:00,
2013-01-16 01:22:00,28.0,25.0,30.06,NNE,30,5.0,-999.0,86,-99.99,,,-99.99,,2013-01-16 06:22:00,
2013-01-16 01:32:00,28.0,23.0,30.06,NNE,20,5.0,-999.0,79,-99.99,,,-99.99,,2013-01-16 06:32:00,
2013-01-16 01:43:00,28.0,23.0,30.06,NNE,20,5.0,-999.0,79,-99.99,,,-99.99,,2013-01-16 06:43:00,
2013-01-16 01:52:00,28.0,23.0,30.06,North,0,0.0,-999.0,79,-99.99,,,-99.99,,2013-01-16 06:52:00,
2013-01-16 02:02:00,28.0,25.0,30.06,NNE,20,3.0,-999.0,86,-99.99,,,-99.99,,2013-01-16 07:02:00,
2013-01-16 02:12:00,28.0,25.0,30.07,North,0,0.0,-999.0,86,-99.99,,,-99.99,,2013-01-16 07:12:00,
2013-01-16 02:22:00,28.0,23.0,30.07,North,0,0.0,-999.0,79,-99.99,,,-99.99,,2013-01-16 07:22:00,
2013-01-16 02:33:00,28.0,23.0,30.06,North,0,0.0,-999.0,79,-99.99,,,-99.99,,2013-01-16 07:33:00,
2013-01-16 02:42:00,28.0,23.0,30.06,North,0,0.0,-999.0,79,-99.99,,,-99.99,,2013-01-16 07:42:00,
2013-01-16 02:52:00,28.0,25.0,30.06,North,0,0.0,-999.0,86,-99.99,,,-99.99,,2013-01-16 07:52:00,
2013-01-16 03:02:00,28.0,25.0,30.06,North,0,0.0,-999.0,86,-99.99,,,-99.99,,2013-01-16 08:02:00,
2013-01-16 03:12:00,28.0,25.0,30.05,East,80,3.0,-999.0,86,-99.99,,,-99.99,,2013-01-16 08:12:00,
2013-01-16 03:22:00,28.0,25.0,30.04,North,0,0.0,-999.0,86,-99.99,,,-99.99,,2013-01-16 08:22:00,
2013-01-16 03:32:00,28.0,25.0,30.03,North,0,0.0,-999.0,86,-99.99,,,-99.99,,2013-01-16 08:32:00,
2013-01-16 03:42:00,28.0,25.0,30.02,North,0,0.0,-999.0,86,-99.99,,,-99.99,,2013-01-16 08:42:00,
2013-01-16 03:52:00,28.0,25.0,30.02,North,0,0.0,-999.0,86,-99.99,,,-99.99,,2013-01-16 08:52:00,
2013-01-16 04:02:00,28.0,25.0,30.02,North,0,0.0,-999.0,86,-99.99,,,-99.99,,2013-01-16 09:02:00,
2013-01-16 04:12:00,28.0,25.0,30.03,North,0,0.0,-999.0,86,-99.99,,,-99.99,,2013-01-16 09:12:00,
2013-01-16 04:22:00,28.0,25.0,30.03,North,0,0.0,-999.0,86,-99.99,,,-99.99,,2013-01-16 09:22:00,
2013-01-16 04:32:00,28.0,25.0,30.03,North,0,0.0,-999.0,86,-99.99,,,-99.99,,2013-01-16 09:32:00,
2013-01-16 04:42:00,28.0,25.0,30.02,North,0,0.0,-999.0,86,-99.99,,,-99.99,,2013-01-16 09:42:00,
2013-01-16 04:52:00,28.0,25.0,30.02,North,0,0.0,-999.0,86,-99.99,,,-99.99,,2013-01-16 09:52:00,
2013-01-16 05:02:00,28.0,25.0,30.01,North,0,0.0,-999.0,86,-99.99,,,-99.99,,2013-01-16 10:02:00,
2013-01-16 05:12:00,28.0,25.0,30.02,North,0,0.0,-999.0,86,-99.99,,,-99.99,,2013-01-16 10:12:00,
2013-01-16 05:22:00,28.0,25.0,30.01,North,0,0.0,-999.0,86,-99.99,,,-99.99,,2013-01-16 10:22:00,
2013-01-16 05:32:00,28.0,25.0,30.00,North,0,0.0,-999.0,86,-99.99,,,-99.99,,2013-01-16 10:32:00,
2013-01-16 05:42:00,28.0,25.0,30.00,North,0,0.0,-999.0,86,-99.99,,,-99.99,,2013-01-16 10:42:00,
2013-01-16 05:52:00,28.0,25.0,29.99,North,0,0.0,-999.0,86,-99.99,,,-99.99,,2013-01-16 10:52:00,
2013-01-16 06:02:00,28.0,27.0,29.99,North,0,0.0,-999.0,92,-99.99,,,-99.99,,2013-01-16 11:02:00,
2013-01-16 06:12:00,28.0,27.0,30.00,North,0,0.0,-999.0,92,-99.99,,,-99.99,,2013-01-16 11:12:00,
2013-01-16 06:22:00,28.0,25.0,30.01,North,0,0.0,-999.0,86,-99.99,,,-99.99,,2013-01-16 11:22:00,
2013-01-16 06:33:00,28.0,25.0,30.01,North,0,0.0,-999.0,86,-99.99,,,-99.99,,2013-01-16 11:33:00,
2013-01-16 06:42:00,28.0,25.0,30.00,North,0,0.0,-999.0,86,-99.99,,,-99.99,,2013-01-16 11:42:00,
2013-01-16 06:52:00,28.0,25.0,29.98,North,0,0.0,-999.0,86,-99.99,,,-99.99,,2013-01-16 11:52:00,
2013-01-16 07:03:00,28.0,25.0,29.99,North,0,0.0,-999.0,86,-99.99,,,-99.99,,2013-01-16 12:03:00,
2013-01-16 07:13:00,28.0,25.0,29.98,North,0,0.0,-999.0,86,-99.99,,,-99.99,,2013-01-16 12:13:00,
2013-01-16 07:22:00,28.0,25.0,29.99,North,0,0.0,-999.0,86,-99.99,,,-99.99,,2013-01-16 12:22:00,
2013-01-16 07:33:00,28.0,25.0,29.99,North,0,0.0,-999.0,86,-99.99,,,-99.99,,2013-01-16 12:33:00,
2013-01-16 07:43:00,28.0,25.0,29.99,North,0,0.0,-999.0,86,-99.99,,,-99.99,,2013-01-16 12:43:00,
2013-01-16 07:53:00,28.0,25.0,29.99,North,0,0.0,-999.0,86,-99.99,,,-99.99,,2013-01-16 12:53:00,
2013-01-16 08:03:00,28.0,27.0,29.99,North,0,0.0,-999.0,92,-99.99,,,-99.99,,2013-01-16 13:03:00,
2013-01-16 08:12:00,28.0,27.0,29.99,North,0,0.0,-999.0,92,-99.99,,,-99.99,,2013-01-16 13:12:00,
2013-01-16 08:23:00,28.0,25.0,29.98,North,0,0.0,-999.0,86,-99.99,,,-99.99,,2013-01-16 13:23:00,
2013-01-16 08:33:00,28.0,25.0,29.98,North,0,0.0,-999.0,86,-99.99,,,-99.99,,2013-01-16 13:33:00,
2013-01-16 08:43:00,28.0,25.0,29.97,North,0,0.0,-999.0,86,-99.99,,,-99.99,,2013-01-16 13:43:00,
2013-01-16 08:52:00,28.0,25.0,29.97,North,0,0.0,-999.0,86,-99.99,,,-99.99,,2013-01-16 13:52:00,
2013-01-16 09:03:00,28.0,27.0,29.98,West,270,3.0,-999.0,92,-99.99,,,-99.99,,2013-01-16 14:03:00,
2013-01-16 09:12:00,28.0,27.0,29.99,WSW,240,6.0,-999.0,92,-99.99,,,-99.99,,2013-01-16 14:12:00,
2013-01-16 09:23:00,28.0,27.0,30.00,SW,230,7.0,-999.0,92,-99.99,,,-99.99,,2013-01-16 14:23:00,
2013-01-16 09:33:00,28.0,27.0,30.00,SW,230,7.0,-999.0,92,-99.99,,,-99.99,,2013-01-16 14:33:00,
2013-01-16 09:43:00,28.0,27.0,30.00,SW,220,7.0,-999.0,92,-99.99,,,-99.99,,2013-01-16 14:43:00,
2013-01-16 09:53:00,28.0,27.0,30.00,SW,230,8.0,-999.0,92,-99.99,,,-99.99,,2013-01-16 14:53:00,
2013-01-16 10:03:00,30.0,27.0,30.00,SW,230,8.0,-999.0,86,-99.99,,,-99.99,,2013-01-16 15:03:00,
2013-01-16 10:12:00,30.0,27.0,30.00,WSW,240,8.0,-999.0,86,-99.99,,,-99.99,,2013-01-16 15:12:00,
2013-01-16 10:23:00,30.0,27.0,30.00,WSW,250,10.0,-999.0,86,-99.99,,,-99.99,,2013-01-16 15:23:00,
2013-01-16 10:33:00,30.0,27.0,30.00,WSW,240,12.0,-999.0,86,-99.99,,,-99.99,,2013-01-16 15:33:00,
2013-01-16 10:43:00,30.0,27.0,29.99,WSW,250,8.0,-999.0,86,-99.99,,,-99.99,,2013-01-16 15:43:00,
2013-01-16 10:52:00,30.0,27.0,29.99,WSW,250,10.0,-999.0,86,-99.99,,,-99.99,,2013-01-16 15:52:00,
2013-01-16 11:04:00,30.0,27.0,29.99,WSW,250,9.0,-999.0,86,-99.99,,,-99.99,,2013-01-16 16:04:00,
2013-01-16 11:12:00,30.0,27.0,30.00,WSW,250,8.0,-999.0,86,-99.99,,,-99.99,,2013-01-16 16:12:00,
2013-01-16 11:22:00,30.0,27.0,29.99,West,270,12.0,-999.0,86,-99.99,,,-99.99,,2013-01-16 16:22:00,
2013-01-16 11:33:00,30.0,25.0,30.00,West,260,12.0,-999.0,80,-99.99,,,-99.99,,2013-01-16 16:33:00,
2013-01-16 11:42:00,30.0,25.0,30.00,West,270,8.0,-999.0,80,-99.99,,,-99.99,,2013-01-16 16:42:00,
2013-01-16 11:52:00,32.0,25.0,29.98,West,260,10.0,-999.0,74,-99.99,,,-99.99,,2013-01-16 16:52:00,
2013-01-16 12:03:00,32.0,25.0,29.98,SW,230,12.0,-999.0,74,-99.99,,,-99.99,,2013-01-16 17:03:00,
2013-01-16 12:12:00,32.0,25.0,29.98,WSW,240,9.0,-999.0,74,-99.99,,,-99.99,,2013-01-16 17:12:00,
2013-01-16 12:23:00,32.0,25.0,29.98,WSW,250,13.0,-999.0,74,-99.99,,,-99.99,,2013-01-16 17:23:00,
2013-01-16 12:33:00,32.0,25.0,29.97,WSW,240,10.0,-999.0,74,-99.99,,,-99.99,,2013-01-16 17:33:00,
2013-01-16 12:43:00,32.0,25.0,29.96,WSW,240,10.0,-999.0,74,-99.99,,,-99.99,,2013-01-16 17:43:00,
2013-01-16 12:53:00,32.0,25.0,29.95,WSW,250,12.0,-999.0,74,-99.99,,,-99.99,,2013-01-16 17:53:00,
2013-01-16 13:03:00,34.0,25.0,29.95,West,260,9.0,-999.0,69,-99.99,,,-99.99,,2013-01-16 18:03:00,
2013-01-16 13:13:00,34.0,25.0,29.96,WSW,240,12.0,-999.0,69,-99.99,,,-99.99,,2013-01-16 18:13:00,
2013-01-16 13:23:00,34.0,25.0,29.95,SW,230,9.0,-999.0,69,-99.99,,,-99.99,,2013-01-16 18:23:00,
2013-01-16 13:33:00,34.0,25.0,29.95,SW,220,10.0,-999.0,69,-99.99,,,-99.99,,2013-01-16 18:33:00,
2013-01-16 13:42:00,34.0,23.0,29.95,WSW,240,13.0,-999.0,64,-99.99,,,-99.99,,2013-01-16 18:42:00,
2013-01-16 13:53:00,34.0,23.0,29.94,SW,230,12.0,-999.0,64,-99.99,,,-99.99,,2013-01-16 18:53:00,
2013-01-16 14:03:00,34.0,23.0,29.94,SW,230,13.0,-999.0,64,-99.99,,,-99.99,,2013-01-16 19:03:00,
2013-01-16 14:13:00,34.0,23.0,29.93,WSW,240,13.0,-999.0,64,-99.99,,,-99.99,,2013-01-16 19:13:00,
2013-01-16 14:23:00,34.0,21.0,29.93,SW,230,10.0,-999.0,59,-99.99,,,-99.99,,2013-01-16 19:23:00,
2013-01-16 14:33:00,34.0,21.0,29.93,SW,220,13.0,-999.0,59,-99.99,,,-99.99,,2013-01-16 19:33:00,
2013-01-16 14:43:00,34.0,21.0,29.93,SW,230,13.0,-999.0,59,-99.99,,,-99.99,,2013-01-16 19:43:00,
2013-01-16 14:52:00,34.0,21.0,29.93,SW,220,12.0,-999.0,59,-99.99,,,-99.99,,2013-01-16 19:52:00,
2013-01-16 15:03:00,34.0,21.0,29.93,SSW,210,12.0,-999.0,59,-99.99,,,-99.99,,2013-01-16 20:03:00,
2013-01-16 15:12:00,34.0,21.0,29.93,SW,220,14.0,-999.0,59,-99.99,,,-99.99,,2013-01-16 20:12:00,
2013-01-16 15:23:00,34.0,21.0,29.93,SW,220,12.0,17.0,59,-99.99,,,-99.99,,2013-01-16 20:23:00,
2013-01-16 15:33:00,34.0,21.0,29.93,SW,220,14.0,18.0,59,-99.99,,,-99.99,,2013-01-16 20:33:00,
2013-01-16 15:43:00,34.0,21.0,29.93,SW,220,16.0,-999.0,59,-99.99,,,-99.99,,2013-01-16 20:43:00,
2013-01-16 15:53:00,34.0,21.0,29.93,SW,220,13.0,-999.0,59,-99.99,,,-99.99,,2013-01-16 20:53:00,
2013-01-16 16:03:00,34.0,21.0,29.93,SW,220,13.0,-999.0,59,-99.99,,,-99.99,,2013-01-16 21:03:00,
2013-01-16 16:12:00,34.0,21.0,29.93,SW,220,12.0,-999.0,59,-99.99,,,-99.99,,2013-01-16 21:12:00,
2013-01-16 16:22:00,34.0,21.0,29.93,SW,220,12.0,16.0,59,-99.99,,,-99.99,,2013-01-16 21:22:00,
2013-01-16 16:33:00,34.0,21.0,29.93,SW,220,12.0,-999.0,59,-99.99,,,-99.99,,2013-01-16 21:33:00,
2013-01-16 16:43:00,34.0,21.0,29.94,SW,220,14.0,-999.0,59,-99.99,,,-99.99,,2013-01-16 21:43:00,
2013-01-16 16:52:00,34.0,21.0,29.95,SW,230,13.0,16.0,59,-99.99,,,-99.99,,2013-01-16 21:52:00,
2013-01-16 17:03:00,34.0,21.0,29.96,SW,220,13.0,-999.0,59,-99.99,,,-99.99,,2013-01-16 22:03:00,
2013-01-16 17:12:00,34.0,21.0,29.95,SW,220,10.0,17.0,59,-99.99,,,-99.99,,2013-01-16 22:12:00,
2013-01-16 17:23:00,34.0,21.0,29.96,SW,230,12.0,-999.0,59,-99.99,,,-99.99,,2013-01-16 22:23:00,
2013-01-16 17:33:00,34.0,21.0,29.96,SW,220,13.0,-999.0,59,-99.99,,,-99.99,,2013-01-16 22:33:00,
2013-01-16 17:43:00,34.0,21.0,29.96,SW,220,12.0,-999.0,59,-99.99,,,-99.99,,2013-01-16 22:43:00,
2013-01-16 17:52:00,34.0,21.0,29.97,SW,220,13.0,-999.0,59,-99.99,,,-99.99,,2013-01-16 22:52:00,
2013-01-16 18:03:00,34.0,21.0,29.97,SW,220,13.0,-999.0,59,-99.99,,,-99.99,,2013-01-16 23:03:00,
2013-01-16 18:12:00,34.0,21.0,29.96,SSW,210,10.0,-999.0,59,-99.99,,,-99.99,,2013-01-16 23:12:00,
2013-01-16 18:23:00,32.0,21.0,29.98,SW,220,13.0,-999.0,63,-99.99,,,-99.99,,2013-01-16 23:23:00,
2013-01-16 18:33:00,34.0,21.0,29.98,SSW,210,13.0,-999.0,59,-99.99,,,-99.99,,2013-01-16 23:33:00,
2013-01-16 18:42:00,34.0,21.0,29.98,SW,220,12.0,-999.0,59,-99.99,,,-99.99,,2013-01-16 23:42:00,
2013-01-16 18:52:00,32.0,21.0,29.98,SSW,210,13.0,-999.0,63,-99.99,,,-99.99,,2013-01-16 23:52:00,
2013-01-16 19:02:00,32.0,21.0,29.98,SW,220,13.0,-999.0,63,-99.99,,,-99.99,,2013-01-17 00:02:00,
2013-01-16 19:12:00,32.0,21.0,29.98,SW,220,13.0,20.0,63,-99.99,,,-99.99,,2013-01-17 00:12:00,
2013-01-16 19:22:00,32.0,21.0,29.98,SW,220,12.0,-999.0,63,-99.99,,,-99.99,,2013-01-17 00:22:00,
2013-01-16 19:32:00,32.0,21.0,29.98,SW,220,12.0,-999.0,63,-99.99,,,-99.99,,2013-01-17 00:32:00,
2013-01-16 19:42:00,32.0,21.0,29.98,SW,220,12.0,-999.0,63,-99.99,,,-99.99,,2013-01-17 00:42:00,
2013-01-16 19:52:00,32.0,21.0,29.99,SW,220,12.0,-999.0,63,-99.99,,,-99.99,,2013-01-17 00:52:00,
2013-01-16 20:02:00,32.0,21.0,29.99,SW,220,12.0,-999.0,63,-99.99,,,-99.99,,2013-01-17 01:02:00,
2013-01-16 20:12:00,32.0,21.0,29.99,SW,220,10.0,-999.0,63,-99.99,,,-99.99,,2013-01-17 01:12:00,
2013-01-16 20:22:00,32.0,21.0,29.99,SW,220,10.0,-999.0,63,-99.99,,,-99.99,,2013-01-17 01:22:00,
2013-01-16 20:33:00,32.0,21.0,29.99,SW,220,13.0,-999.0,63,-99.99,,,-99.99,,2013-01-17 01:33:00,
2013-01-16 20:42:00,32.0,21.0,30.00,SW,220,13.0,17.0,63,-99.99,,,-99.99,,2013-01-17 01:42:00,
2013-01-16 20:52:00,32.0,21.0,30.00,SW,220,12.0,-999.0,63,-99.99,,,-99.99,,2013-01-17 01:52:00,
2013-01-16 21:02:00,32.0,21.0,30.00,SW,220,12.0,17.0,63,-99.99,,,-99.99,,2013-01-17 02:02:00,
2013-01-16 21:12:00,32.0,21.0,30.00,SW,220,14.0,-999.0,63,-99.99,,,-99.99,,2013-01-17 02:12:00,
2013-01-16 21:22:00,32.0,21.0,30.00,SW,220,14.0,18.0,63,-99.99,,,-99.99,,2013-01-17 02:22:00,
2013-01-16 21:32:00,32.0,21.0,30.01,SW,230,14.0,-999.0,63,-99.99,,,-99.99,,2013-01-17 02:32:00,
2013-01-16 21:42:00,32.0,21.0,30.01,SW,230,14.0,-999.0,63,-99.99,,,-99.99,,2013-01-17 02:42:00,
2013-01-16 21:52:00,32.0,21.0,30.01,SW,230,14.0,-999.0,63,-99.99,,,-99.99,,2013-01-17 02:52:00,
2013-01-16 22:03:00,32.0,21.0,30.02,SW,220,15.0,-999.0,63,-99.99,,,-99.99,,2013-01-17 03:03:00,
2013-01-16 22:12:00,32.0,21.0,30.02,SW,230,14.0,-999.0,63,-99.99,,,-99.99,,2013-01-17 03:12:00,
2013-01-16 22:22:00,34.0,21.0,30.02,WSW,240,14.0,-999.0,59,-99.99,,,-99.99,,2013-01-17 03:22:00,
2013-01-16 22:33:00,34.0,21.0,30.02,SW,230,14.0,20.0,59,-99.99,,,-99.99,,2013-01-17 03:33:00,
2013-01-16 22:42:00,34.0,21.0,30.02,WSW,240,14.0,20.0,59,-99.99,,,-99.99,,2013-01-17 03:42:00,
2013-01-16 22:52:00,34.0,21.0,30.03,WSW,240,13.0,18.0,59,-99.99,,,-99.99,,2013-01-17 03:52:00,
2013-01-16 23:02:00,34.0,21.0,30.02,WSW,240,14.0,20.0,59,-99.99,,,-99.99,,2013-01-17 04:02:00,
2013-01-16 23:12:00,34.0,21.0,30.03,WSW,250,15.0,18.0,59,-99.99,,,-99.99,,2013-01-17 04:12:00,
2013-01-16 23:22:00,34.0,21.0,30.02,WSW,240,12.0,18.0,59,-99.99,,,-99.99,,2013-01-17 04:22:00,
2013-01-16 23:33:00,34.0,21.0,30.03,WSW,250,13.0,20.0,59,-99.99,,,-99.99,,2013-01-17 04:33:00,
2013-01-16 23:42:00,34.0,21.0,30.03,West,260,14.0,18.0,59,-99.99,,,-99.99,,2013-01-17 04:42:00,
2013-01-16 23:52:00,34.0,21.0,30.04,WSW,240,13.0,18.0,59,-99.99,,,-99.99,,2013-01-17 04:52:00,